Skip Page Navigation
NASA JPL Caltech
NASA Logo - Jet Propulsion Laboratory + View the NASA Portal
+ Near-Earth Object (NEO) Program
Search JPL
JPL Home Earth Solar System Stars & Galaxies Technology
JPL Solar System Dynamics
BODIES ORBITS EPHEMERIDES TOOLS PHYSICAL DATA DISCOVERY FAQ SITE MAP
JPL Small-Body Database Browser
Search: [ help ]  
356991 (1998 QA1)
Classification: Apollo [NEO, PHA]          SPK-ID: 2356991
Ephemeris | Orbit Diagram | Orbital Elements | Physical Parameters | Discovery Circumstances | Close-Approach Data ]

[ hide orbit diagram ]
Orbit Diagram
Note: Make sure you have Java enabled on your browser to see the applet. This applet is provided as a 3D orbit visualization tool. The applet was implemented using 2-body methods, and hence should not be used for determining accurate long-term trajectories (over several years or decades) or planetary encounter circumstances. For accurate long-term ephemerides, please instead use our Horizons system.
Orbit Viewer

Additional Notes: the orbits shown in the applet are color coded. The planets are white lines, and the asteroid/comet is a blue line. The bright white line indicates the portion of the orbit that is above the ecliptic plane, and the darker portion is below the ecliptic plane. Likewise for the asteroid/comet orbit, the light blue indicates the portion above the ecliptic plane, and the dark blue the portion below the ecliptic plane.

Orbit Viewer applet originally written and kindly provided by Osamu Ajiki (AstroArts), and further modified by Ron Baalke (JPL).


Orbital Elements at Epoch 2456400.5 (2013-Apr-18.0) TDB
Reference: JPL 47 (heliocentric ecliptic J2000)
 Element Value Uncertainty (1-sigma)   Units 
e .5332339565425905 1.0162e-07  
a 2.102885896890503 3.8931e-08 AU
q .9815557299339662 2.2353e-07 AU
i 8.175167797246893 2.5035e-05 deg
node 299.0412351572119 0.00013155 deg
peri 332.9788247420638 0.00012925 deg
M 307.1395185526462 5.686e-05 deg
tp 2456564.050020546678
(2013-Sep-28.55002055)
0.00018025 JED
period 1113.837895242087
3.05
3.0931e-05
8.468e-08
d
yr
n .3232068163040511 8.9753e-09 deg/d
Q 3.22421606384704 5.969e-08 AU
  Orbit Determination Parameters
   # obs. used (total)      196  
   data-arc span      5328 days (14.59 yr)  
   first obs. used      1998-08-19  
   last obs. used      2013-03-21  
   planetary ephem.      DE405  
   SB-pert. ephem.      SB405-CPV-2  
   condition code      0  
   fit RMS      .42747  
   data source      ORB  
   producer      Otto Matic  
   solution date      2013-Apr-29 15:41:56  

Additional Information
 Earth MOID = .0030322 AU 
 T_jup = 3.539 
[ show covariance matrix ]

Ephemeris | Orbit Diagram | Orbital Elements | Physical Parameters | Discovery Circumstances | Close-Approach Data ]

Physical Parameter Table
Parameter Symbol Value Units Sigma Reference Notes
absolute magnitude H 18.866 mag .929 47 autocmod 2.5c

356991 (1998 QA1)          Discovered 1998-Aug-19 by LINEAR at Socorro (704)
Reference: 20130327/Numbers.arcLast Updated: 2013-03-29

[ show close-approach data ]
Ephemeris | Orbit Diagram | Orbital Elements | Physical Parameters | Discovery Circumstances | Close-Approach Data ]
ABOUT SSD CREDITS/AWARDS PRIVACY/COPYRIGHT GLOSSARY LINKS
FirstGov 2013-May-20 03:36 UT
(server date/time)  
NASA Home Page
Site Manager:   Donald K. Yeomans
Webmaster  Alan B. Chamberlin